Morrisville, NC

12:26 PM EST on December 08, 2016 (GMT -0500)
Raleigh-Durham International

Weather History for KRDU - July, 2012

Change the Weather History Date:

Monday, July 30, 2012

  Actual Average Record
Temperature  
Mean Temperature 80 °F 80 °F  
Max Temperature 89 °F 90 °F 101 °F (1953)
Min Temperature 71 °F 70 °F 56 °F (1946)
Degree Days  
Heating Degree Days 0 0  
Month to date heating degree days 0 0  
Since 1 June heating degree days 0 4  
Since 1 July heating degree days 0 0  
Cooling Degree Days 15 15  
Month to date cooling degree days 567 450  
Year to date cooling degree days 1188 1006  
Since 1 June cooling degree days 866 797  
Growing Degree Days 30 (Base 50)    
Moisture  
Dew Point 69 °F    
Average Humidity 73    
Maximum Humidity 93    
Minimum Humidity 53    
Precipitation  
Precipitation 0.00 in 0.17 in 3.70 in (1888)
Month to date precipitation 4.64 4.57  
Year to date precipitation 23.60 25.12  
Sea Level Pressure  
Sea Level Pressure 29.99 in    
Wind  
Wind Speed 6 mph (East)    
Max Wind Speed 22 mph    
Max Gust Speed 28 mph    
Visibility 10 miles    
Events      
T = Trace of Precipitation, MM = Missing Value Source: NWS Daily Summary

Daily Weather History Graph

Daily Weather History Graph

Search for Another Location

Airport or City:

Trip Planner

Search our weather history database for the weather conditions in past years. The results will help you decide how hot, cold, wet, or windy it might be!

Date:

Astronomy

Jul. 30, 2012 Rise Set
Actual Time 6:21 AM EDT 8:21 PM EDT
Civil Twilight 5:53 AM EDT 8:49 PM EDT
Nautical Twilight 5:18 AM EDT 9:23 PM EDT
Astronomical Twilight 4:41 AM EDT 10:00 PM EDT
Moon 6:19 PM EDT (7/30) 3:36 AM EDT (7/30)
Length of Visible Light 14h 56m
Length of Day
13h 59m
Waxing Gibbous, 92% of the Moon is Illuminated
Jul 30
Waxing Gibbous
Aug 1
Full
Aug 9
Last Quarter
Aug 17
New
Aug 24
First Quarter

Hourly Weather History & Observations

Time (EDT) Temp. Heat Index Dew Point Humidity Pressure Visibility Wind Dir Wind Speed Gust Speed Precip Events Conditions
12:51 AM 73.9 °F - 69.1 °F 85% 29.99 in 10.0 mi Calm Calm - N/A   Partly Cloudy
1:51 AM 73.9 °F - 69.1 °F 85% 29.97 in 10.0 mi Calm Calm - N/A   Partly Cloudy
2:51 AM 73.0 °F - 69.1 °F 87% 29.97 in 10.0 mi Calm Calm - N/A   Partly Cloudy
3:51 AM 71.1 °F - 69.1 °F 93% 29.96 in 10.0 mi Calm Calm - N/A   Partly Cloudy
4:51 AM 72.0 °F - 69.1 °F 91% 29.97 in 10.0 mi NE 4.6 mph - N/A   Partly Cloudy
5:51 AM 72.0 °F - 69.1 °F 91% 29.99 in 7.0 mi Calm Calm - N/A   Mostly Cloudy
6:51 AM 72.0 °F - 70.0 °F 93% 29.99 in 7.0 mi Calm Calm - N/A   Mostly Cloudy
7:51 AM 75.0 °F - 71.1 °F 87% 30.00 in 8.0 mi NNE 4.6 mph - N/A   Mostly Cloudy
8:51 AM 75.9 °F - 72.0 °F 87% 30.01 in 9.0 mi NE 9.2 mph - N/A   Mostly Cloudy
9:51 AM 80.1 °F 83.8 °F 72.0 °F 76% 30.01 in 10.0 mi East 9.2 mph - N/A   Mostly Cloudy
10:51 AM 82.9 °F 88.0 °F 72.0 °F 69% 30.03 in 10.0 mi East 6.9 mph - N/A   Mostly Cloudy
11:51 AM 86.0 °F 90.7 °F 70.0 °F 59% 30.01 in 10.0 mi East 10.4 mph - N/A   Mostly Cloudy
12:51 PM 87.1 °F 92.0 °F 70.0 °F 57% 30.00 in 10.0 mi East 9.2 mph 16.1 mph N/A   Mostly Cloudy
1:51 PM 88.0 °F 92.9 °F 70.0 °F 55% 29.97 in 10.0 mi ENE 10.4 mph - N/A   Mostly Cloudy
2:51 PM 87.1 °F 90.6 °F 68.0 °F 53% 29.96 in 10.0 mi ENE 8.1 mph - N/A   Mostly Cloudy
3:51 PM 87.1 °F 90.6 °F 68.0 °F 53% 29.96 in 10.0 mi East 9.2 mph - N/A   Mostly Cloudy
4:51 PM 75.9 °F - 66.0 °F 71% 30.00 in 10.0 mi ESE 19.6 mph 27.6 mph N/A   Overcast
5:51 PM 75.9 °F - 66.9 °F 74% 29.97 in 10.0 mi South 8.1 mph - N/A   Mostly Cloudy
6:51 PM 77.0 °F - 68.0 °F 74% 29.95 in 10.0 mi SW 3.5 mph - N/A   Mostly Cloudy
7:51 PM 78.1 °F - 66.9 °F 68% 29.98 in 10.0 mi East 6.9 mph - N/A   Mostly Cloudy
8:51 PM 75.0 °F - 69.1 °F 82% 29.99 in 10.0 mi SSE 4.6 mph - N/A   Mostly Cloudy
9:51 PM 73.4 °F - 69.8 °F 88% 30.01 in 10.0 mi Calm Calm - N/A   Scattered Clouds
10:51 PM 73.9 °F - 69.1 °F 85% 30.00 in 10.0 mi Calm Calm - N/A   Scattered Clouds
11:51 PM 73.0 °F - 70.0 °F 90% 30.00 in 10.0 mi SSE 4.6 mph - N/A   Mostly Cloudy